Regional Weather Roundup
Issued by NWS

Home | Current Version | Previous Version | Text Only | Print | Product List | Glossary Off
Versions: 1 2 3 4 5 6 7 8 9 10 11 12 13 14 15 16 17 18 19 20 21 22 23 24 25 26 27 28 29 30 31 32 33 34 35 36 37 38 39 40 41 42 43 44 45 46 47 48 49 50

000
ASUS43 KMPX 241110
RWRMN
WEATHER ROUNDUP FOR MINNESOTA
NATIONAL WEATHER SERVICE TWIN CITIES/CHANHASSEN MN
600 AM CDT MON JUL 24 2017


NOTE: "FAIR" INDICATES FEW OR NO CLOUDS BELOW 12,000 FEET WITH NO
SIGNIFICANT WEATHER AND/OR OBSTRUCTIONS TO VISIBILITY. N/A MEANS
CURRENT SKY AND/OR WEATHER CONDITIONS ARE NOT AVAILABLE.

MNZ060>063-068>070-241200-
   Twin Cities Metro

CITY           SKY/WX    TMP DP  RH WIND       PRES   REMARKS
TWIN CITIES    CLEAR     61  55  81 E7        30.05S
ST PAUL        CLEAR     59  57  93 NE3       30.06R
CRYSTAL        CLEAR     55  53  93 NE3       30.04S
BLAINE         CLEAR     57  57 100 CALM      30.06R FOG
LAKEVILLE      CLEAR     52  52 100 CALM      30.05S FOG
EDEN PRAIRIE   CLEAR     61  57  87 E5        30.04S
SOUTH ST PAUL  CLEAR     60  55  85 E3        30.06R
LAKE ELMO      FAIR      54  54 100 CALM      30.07S FOG
$$
MNZ001>005-007-008-013>017-022>024-027-028-241200-
   Northwest Minnesota

CITY           SKY/WX    TMP DP  RH WIND       PRES   REMARKS
BEMIDJI        CLEAR     56  55  97 CALM      30.03S
HALLOCK        CLEAR     57  57 100 SE6       29.95R FOG
ROSEAU         CLEAR     57  54  88 S5        29.98R
WARROAD        CLEAR     59  55  88 S3        29.99R
THIEF RVR FALL CLEAR     59  57  93 S7        29.99S
CROOKSTON      CLEAR     63  59  88 S12       29.96F
FOSSTON        CLEAR     57  55  94 S7        30.02R
DETROIT LAKES  CLEAR     61  59  94 S5        30.05R
MOORHEAD       CLEAR     63  59  88 S10       30.01S
PARK RAPIDS    FOG       56  53  90 CALM      30.04S VSB 3/4
MAHNOMEN       FAIR      59  57  94 S5        30.02R
$$
MNZ006-009>011-018-025>026-241200-
   North Central Minnesota

CITY           SKY/WX    TMP DP  RH WIND       PRES   REMARKS
BAUDETTE       CLEAR     57  56  96 S7        30.00S
FLAG ISLAND    CLEAR     66  61  82 CALM      29.97S HAZE
INTL FALLS     CLEAR     56  54  93 CALM      30.03S
WASKISH        CLEAR     55  54  94 SE3       30.02
BIG FORK       CLEAR     48  46  93 CALM      30.05S
LONGVILLE      CLEAR     52  52 100 CALM      30.05S
GRAND RAPIDS   CLEAR     52  51  97 SE3       30.08S
CRANE LAKE     CLEAR     48  48 100 CALM      30.07R
ORR            CLEAR     54  50  87 CALM      30.04S
COOK           CLEAR     48  48 100 CALM      30.07S
WALKER         FAIR      57  56  98 CALM      30.04R
$$
MNZ012-019>021-037-241200-
   Northeast Minnesota

CITY           SKY/WX    TMP DP  RH WIND       PRES   REMARKS
DULUTH         FOG       50  50 100 CALM      30.08S VSB 1/8
ELY            CLEAR     46  46 100 CALM      30.08R
HIBBING        FOG       42  42 100 CALM      30.07S VSB 1/4
EVELETH        FOG       45  43  92 CALM      30.09R VSB<1/4
DULUTH HARBOR  FOG       57  55  94 CALM      30.09R VSB 1/2
TWO HARBORS    CLEAR     46  43  87 CALM      30.07R HAZE
SILVER BAY     CLEAR     43  43 100 CALM      30.07R
GRAND MARAIS     N/A     50  49  96 CALM      30.08R
G MARAIS ARPRT CLEAR     43  39  87 CALM      30.10R
$$
MNZ029>031-032-039>041-046>048-054>057-064-241200-
   West Central Minnesota

CITY           SKY/WX    TMP DP  RH WIND       PRES   REMARKS
FERGUS FALLS   CLEAR     61  61 100 S7        30.04R
WHEATON        CLEAR     57  55  94 SE8       30.04S
MORRIS         CLEAR     57  55  94 SE6       30.04R
ALEXANDRIA     CLEAR     58  57  97 S6        30.06R
ELBOW LAKE     FAIR      58  58  97 E6        30.05R
WADENA         FOG       54  54 100 CALM      30.04S VSB 1/4
GLENWOOD       CLEAR     55  55 100 SE3       30.06R FOG
APPLETON       CLEAR     61  55  82 SE3       30.04R
BENSON         CLEAR     57  57 100 S6        30.06R
ORTONVILLE     CLEAR     59  57  94 SE6       30.03S
MADISON        CLEAR     57  57 100 SE3       30.03S FOG
WILLMAR        FAIR      57  57 100 SE3       30.06R
$$
MNZ033>034-036-042>043-049>051-058-059-241200-
   Central Minnesota

CITY           SKY/WX    TMP DP  RH WIND       PRES   REMARKS
ST CLOUD       CLEAR     55  55 100 E3        30.05S
SAUK CENTRE    FOG       52  52  99 CALM      30.06R VSB 1/4
PAYNESVILLE    CLEAR     53  52  97 CALM      30.06R
AITKIN         FOG       50  48  93 CALM      30.05F VSB<1/4
PINE RIVER     CLEAR     54  54 100 CALM      30.08S FOG
BRAINERD       CLEAR     51  51 100 CALM      30.05F
STAPLES        FOG       54  52  94 CALM      30.05R VSB 1
LONG PRAIRIE   FAIR      54  54 100 CALM      30.06R FOG
LITTLE FALLS   CLEAR     54  52  94 CALM      30.05S
LITCHFIELD     CLEAR     57  57 100 CALM      30.06R FOG
BUFFALO        CLEAR     55  53  92 NE5       30.06S
MAPLE LAKE       N/A     53  53  99 CALM      30.06S FOG
HUTCHINSON     FOG       54  54  99 CALM      30.06R VSB<1/4
$$
MNZ037-044-045-052-053-241200-
   East Central Minnesota

CITY           SKY/WX    TMP DP  RH WIND       PRES   REMARKS
PRINCETON      FOG       55  54  94 CALM      30.07R VSB 1
MORA           FOG       50  50 100 CALM      30.09R VSB 1/2
CAMBRIDGE      CLEAR     54  50  87 CALM      30.06R FOG
RUSH CITY      FOG       53  52  97 CALM      30.07S VSB 1/4
MOOSE LAKE     FOG       54  52  94 CALM      30.06S VSB 3/4
HINCKLEY       FOG       52  52 100 CALM      30.08S VSB 1/4
CLOQUET        FOG       54  52  94 CALM      30.09R VSB<1/4
MCGREGOR       CLOUDY    50  50 100 CALM      30.07S VSB 1/4
$$
MNZ071>073-080-081-089-090-097-098-241200-
   Southwest Minnesota

CITY           SKY/WX    TMP DP  RH WIND       PRES   REMARKS
MONTEVIDEO     CLEAR     55  55 100 S5        30.05R
GRANITE FALLS  CLEAR     60  58  92 SE3       30.06R
CANBY          CLEAR     53  52  95 CALM      30.05R
MARSHALL       CLEAR     57  55  94 S3        30.05R FOG
REDWOOD FALLS  CLEAR     58  55  90 SE3       30.04R
OLIVIA         CLEAR     55  54  94 CALM      30.05R
PIPESTONE      CLEAR     59  57  94 NE5       30.05S
WINDOM         CLEAR     55  54  94 CALM      30.05S
WORTHINGTON    CLEAR     54  52  93 CALM      30.07R
JACKSON        CLEAR     55  55 100 CALM      30.07R FOG
SLAYTON        HVY RAIN  57  51  80 CALM      30.06R
$$
MNZ065>067-074>077-082>085-091>093-241200-
   South Central Minnesota

CITY           SKY/WX    TMP DP  RH WIND       PRES   REMARKS
MANKATO        CLEAR     58  57  97 E6        30.05R
NEW ULM        CLEAR     57  55  94 CALM      30.05R
ST JAMES       FOG       55  55 100 CALM      30.06R VSB 1
FAIRMONT       CLEAR     57  56  96 CALM      30.05R FOG
GLENCOE        CLEAR     57  57 100 CALM      30.05R
FARIBAULT      CLEAR     55  55 100 CALM      30.05S FOG
OWATONNA       CLEAR     55  54  94 CALM      30.05S FOG
WASECA         CLEAR     55  55 100 NE5       30.06S
ALBERT LEA     CLEAR     55  55 100 N3        30.04S FOG
$$
MNZ078>079-086>088-094>096-241200-
   Southeast Minnesota

CITY           SKY/WX    TMP DP  RH WIND       PRES   REMARKS
ROCHESTER      CLEAR     57  57 100 NE7       30.05S
RED WING       PTCLDY    59  55  88 E3        30.04S
STANTON          N/A     53  52  95 CALM      30.04S FOG
DODGE CENTER   CLEAR     55  55 100 NE5       30.05S
WINONA         CLEAR     59  57  94 E5        30.05R
AUSTIN         CLEAR     55  54  94 NE3       30.04S
PRESTON        CLEAR     56  55  94 N5        30.06R
$$
ABBREVIATIONS USED IN REMARKS
   TC - TEMPERATURES IN CELSIUS
  WCI - WIND CHILL INDEX
   HX - HEAT INDEX
  VSB - VISIBILITY
$$



USA.gov is the U.S. government's official web portal to all federal, state and local government web resources and services.